GSAT0201 (GALILEO 5) (40128 NORAD) Tracking and Keplerian Element Data

This shows tracking and keplerian element data for the satellite.

Feedback or suggestion? Click here.




ElementValue
Catalog40128
NameGSAT0201 (GALILEO 5)
Epoch Orbit3179
Epoch Day112.89808953
Epoch Year2019
RAAN18.2043
Inclination50.5596
Eccentricity0.1663954
Argument of Perigee85.7111
Mean Anonmoly293.0183
Mean Motion1.85518577
Decay Rate-1.2E-06
L11 40128U 14050A 19112.89808953 -.00000120 00000-0 00000+0 0 9992
L22 40128 50.5596 18.2043 1663954 85.7111 293.0183 1.85518577 31795

Live tracking and technical data element details for GSAT0201 (GALILEO 5) (NORAD 40128). GSAT0201 (GALILEO 5) can be tracked NOW for your location showing map with azimuth and elevation plus other details from your city location.

Track the satellite on the map from your city or location and see movement details for azimuth, elevation, latitude, longitude, range, height, and movement on the map or in text.







IsCatalogInMostPopularTable: catalog: 40128, numindb: 179
Update: records affected: 1



GetName: 40128 GSAT0201 (GALILEO 5)

Hit Count: updated at: Thu, 25 Apr 2019 20:24:59 GMT